Content
SEND FEEDBACK

Daily
Averages
Monthly
Summary
United States of America

STARKE, FLORIDA


Home > North America > United States > Florida
Elevation: 49 meters     Latitude: 29 56N     Longitude: 082 06W

WEATHER
 
SELECT A DAY
Number of Records: 210,842;   Date Range: 1/1/95 - 10/21/14
 
SHARE

PRINT THIS DATA

[ ← Previous Day ]
WEATHER ALMANAC - 23 JANUARY, 2013
[ Next Day → ]
[ °F ]   °C
Weather ElementAverageHighLow
Temperature8.6 °C18.3 °C (3:53 pm)0.6 °C (4:53 am)
Dewpoint0.2 °C3.9 °C (7:53 pm)-2.8 °C (11:53 am)
Humidity61.6 %89 % (3:53 am)27 % (12:53 pm)
Barometer1027.8 hPa1030.5 hPa (10:53 am)1026.8 hPa (2:53 am)
Wind Speed5.3 km/h14.8 km/h (10:53 am)
Weather ElementAverage
Visibility15.8 km
Wind DirectionSSE (166.1 °)

Weather ElementTotal
Precipitation---
Heating Degree Days8.9 (Base 18.3)
Averaged from 23 records on 23 January, 2013
WEATHER CONDITIONS BREAKOUT
WIND DIRECTION BREAKOUT
WEATHER BY HOUR - 23 JANUARY, 2013
[ °F ]   °C
Local TimeTemperatureDewpointHumidityBarometerVisibilityWind DirectionWind SpeedGust SpeedPrecipitationEventsConditions
1:53 AM4.4 °C0.6 °C77 %1027.1 hPa16.1 kmNNW (340°)5.6 km/hClear
2:53 AM2.2 °C-0.6 °C82 %1026.8 hPa16.1 kmNNW (330°)5.6 km/hClear
3:53 AM1.1 °C-0.6 °C89 %1027.4 hPa16.1 kmCalmClear
4:53 AM0.6 °C-1.1 °C89 %1027.4 hPa16.1 kmCalmClear
5:53 AM0.6 °C-1.1 °C89 %1027.8 hPa16.1 kmCalmClear
6:53 AM1.1 °C-1.7 °C82 %1028.1 hPa16.1 kmCalmClear
7:53 AM0.6 °C-1.1 °C89 %1029.1 hPa12.9 kmCalmClear
8:53 AM6.7 °C-0.6 °C60 %1029.5 hPa12.9 kmNorth (360°)11.1 km/hClear
9:53 AM10 °C-1.1 °C46 %1030.1 hPa16.1 kmNorth (350°)9.3 km/hClear
10:53 AM12.8 °C-2.2 °C35 %1030.5 hPa16.1 kmNNW (330°)14.8 km/hClear
11:53 AM15 °C-2.8 °C29 %1029.8 hPa16.1 kmNNW (340°)9.3 km/hClear
12:53 PM16.1 °C-2.8 °C27 %1028.4 hPa16.1 kmVariable9.3 km/hClear
1:53 PM16.7 °C-1.7 °C29 %1027.1 hPa16.1 kmNW (310°)11.1 km/hClear
2:53 PM17.8 °C-1.1 °C28 %1026.8 hPa16.1 kmNNE (20°)7.4 km/hClear
3:53 PM18.3 °C0 °C29 %1026.8 hPa16.1 kmNorth (350°)11.1 km/hClear
4:53 PM17.2 °C0.6 °C33 %1026.8 hPa16.1 kmWNW (290°)9.3 km/hClear
5:53 PM15 °C2.2 °C42 %1026.8 hPa16.1 kmCalmClear
6:53 PM10.6 °C3.3 °C61 %1026.8 hPa16.1 kmCalmClear
7:53 PM8.3 °C3.9 °C74 %1026.8 hPa16.1 kmWest (260°)5.6 km/hClear
8:53 PM7.2 °C3.3 °C76 %1026.8 hPa16.1 kmCalmClear
9:53 PM5.6 °C2.8 °C82 %1027.1 hPa16.1 kmCalmClear
10:53 PM6.1 °C2.8 °C80 %1027.1 hPa16.1 kmWest (270°)5.6 km/hClear
11:53 PM4.4 °C2.8 °C89 %1026.8 hPa16.1 kmWest (270°)5.6 km/hClear
Hourly data recorded from KGNV, located 0 kilometers away from Starke, Florida







STORIES FROM OUR PARTNERS